Time,TemperatureF,DewpointF,PressureIn,WindDirection,WindDirectionDegrees,WindSpeedMPH,WindSpeedGustMPH,Humidity,HourlyPrecipIn,Conditions,Clouds,dailyrainin,SoftwareType,DateUTC
2013-03-04 00:02:00,67.0,-99.9,-100.00,WSW,248,11.0,-999.0,-999,-99.99,,,0.00,,2013-03-04 07:02:00,
2013-03-04 00:11:00,67.0,-99.9,-100.00,WSW,248,11.0,-999.0,-999,-99.99,,,0.00,,2013-03-04 07:11:00,
2013-03-04 00:22:00,67.0,-99.9,-100.00,WSW,248,4.0,-999.0,-999,-99.99,,,0.00,,2013-03-04 07:22:00,
2013-03-04 00:32:00,67.0,-99.9,-100.00,WSW,248,3.0,-999.0,-999,-99.99,,,0.00,,2013-03-04 07:32:00,
2013-03-04 00:42:00,67.0,-99.9,-100.00,WSW,248,3.0,-999.0,-999,-99.99,,,0.00,,2013-03-04 07:42:00,
2013-03-04 00:52:00,67.0,-99.9,-100.00,WSW,248,5.0,-999.0,-999,-99.99,,,0.00,,2013-03-04 07:52:00,
2013-03-04 01:02:00,66.0,-99.9,-100.00,WSW,248,6.0,-999.0,-999,-99.99,,,0.00,,2013-03-04 08:02:00,
2013-03-04 01:12:00,67.0,-99.9,-100.00,WSW,248,11.0,-999.0,-999,-99.99,,,0.00,,2013-03-04 08:12:00,
2013-03-04 01:22:00,67.0,-99.9,-100.00,WSW,248,11.0,-999.0,-999,-99.99,,,0.00,,2013-03-04 08:22:00,
2013-03-04 01:32:00,66.0,-99.9,-100.00,WSW,248,8.0,-999.0,-999,-99.99,,,0.00,,2013-03-04 08:32:00,
2013-03-04 01:42:00,66.0,-99.9,-100.00,WSW,248,8.0,-999.0,-999,-99.99,,,0.00,,2013-03-04 08:42:00,
2013-03-04 01:53:00,66.0,-99.9,-100.00,WSW,248,2.0,-999.0,-999,-99.99,,,0.00,,2013-03-04 08:53:00,
2013-03-04 02:02:00,66.0,-99.9,-100.00,WSW,248,0.0,-999.0,-999,-99.99,,,0.00,,2013-03-04 09:02:00,
2013-03-04 02:11:00,66.0,-99.9,-100.00,WSW,248,0.0,-999.0,-999,-99.99,,,0.00,,2013-03-04 09:11:00,
2013-03-04 02:22:00,66.0,-99.9,-100.00,WSW,248,5.0,-999.0,-999,-99.99,,,0.00,,2013-03-04 09:22:00,
2013-03-04 02:32:00,65.0,-99.9,-100.00,WSW,248,0.0,-999.0,-999,-99.99,,,0.00,,2013-03-04 09:32:00,
2013-03-04 02:42:00,65.0,-99.9,-100.00,WSW,248,0.0,-999.0,-999,-99.99,,,0.00,,2013-03-04 09:42:00,
2013-03-04 02:52:00,64.0,-99.9,-100.00,WSW,248,0.0,-999.0,-999,-99.99,,,0.00,,2013-03-04 09:52:00,
2013-03-04 03:02:00,63.0,-99.9,-100.00,WSW,248,0.0,-999.0,-999,-99.99,,,0.00,,2013-03-04 10:02:00,
2013-03-04 03:12:00,63.0,-99.9,-100.00,WSW,248,0.0,-999.0,-999,-99.99,,,0.00,,2013-03-04 10:12:00,
2013-03-04 03:22:00,63.0,-99.9,-100.00,WSW,248,1.0,-999.0,-999,-99.99,,,0.00,,2013-03-04 10:22:00,
2013-03-04 03:32:00,62.0,-99.9,-100.00,WSW,248,0.0,-999.0,-999,-99.99,,,0.00,,2013-03-04 10:32:00,
2013-03-04 03:42:00,61.0,-99.9,-100.00,WSW,248,0.0,-999.0,-999,-99.99,,,0.00,,2013-03-04 10:42:00,
2013-03-04 03:52:00,61.0,-99.9,-100.00,WSW,248,0.0,-999.0,-999,-99.99,,,0.00,,2013-03-04 10:52:00,
2013-03-04 04:02:00,62.0,-99.9,-100.00,WSW,248,0.0,-999.0,-999,-99.99,,,0.00,,2013-03-04 11:02:00,
2013-03-04 04:11:00,62.0,-99.9,-100.00,WSW,248,0.0,-999.0,-999,-99.99,,,0.00,,2013-03-04 11:11:00,
2013-03-04 04:22:00,63.0,-99.9,-100.00,WSW,248,10.0,-999.0,-999,-99.99,,,0.00,,2013-03-04 11:22:00,
2013-03-04 04:32:00,63.0,-99.9,-100.00,WSW,248,0.0,-999.0,-999,-99.99,,,0.00,,2013-03-04 11:32:00,
2013-03-04 04:42:00,63.0,-99.9,-100.00,WSW,248,0.0,-999.0,-999,-99.99,,,0.00,,2013-03-04 11:42:00,
2013-03-04 04:52:00,63.0,-99.9,-100.00,WSW,248,2.0,-999.0,-999,-99.99,,,0.00,,2013-03-04 11:52:00,
2013-03-04 05:02:00,63.0,-99.9,-100.00,WSW,248,4.0,-999.0,-999,-99.99,,,0.00,,2013-03-04 12:02:00,
2013-03-04 05:12:00,63.0,-99.9,-100.00,WSW,248,7.0,-999.0,-999,-99.99,,,0.00,,2013-03-04 12:12:00,
2013-03-04 05:22:00,63.0,-99.9,-100.00,WSW,248,7.0,-999.0,-999,-99.99,,,0.00,,2013-03-04 12:22:00,
2013-03-04 05:32:00,63.0,-99.9,-100.00,WSW,248,6.0,-999.0,-999,-99.99,,,0.00,,2013-03-04 12:32:00,
2013-03-04 05:43:00,63.0,-99.9,-100.00,WSW,248,6.0,-999.0,-999,-99.99,,,0.00,,2013-03-04 12:43:00,
2013-03-04 05:53:00,62.0,-99.9,-100.00,WSW,248,5.0,-999.0,-999,-99.99,,,0.00,,2013-03-04 12:53:00,
2013-03-04 06:02:00,63.0,-99.9,-100.00,WSW,248,0.0,-999.0,-999,-99.99,,,0.00,,2013-03-04 13:02:00,
2013-03-04 06:11:00,63.0,-99.9,-100.00,WSW,248,0.0,-999.0,-999,-99.99,,,0.00,,2013-03-04 13:11:00,
2013-03-04 06:22:00,62.0,-99.9,-100.00,WSW,248,0.0,-999.0,-999,-99.99,,,0.00,,2013-03-04 13:22:00,
2013-03-04 06:32:00,61.0,-99.9,-100.00,WSW,248,3.0,-999.0,-999,-99.99,,,0.00,,2013-03-04 13:32:00,
2013-03-04 06:42:00,61.0,-99.9,-100.00,WSW,248,3.0,-999.0,-999,-99.99,,,0.00,,2013-03-04 13:42:00,
2013-03-04 06:52:00,61.0,-99.9,-100.00,WSW,248,2.0,-999.0,-999,-99.99,,,0.00,,2013-03-04 13:52:00,
2013-03-04 07:02:00,62.0,-99.9,-100.00,WSW,248,2.0,-999.0,-999,-99.99,,,0.00,,2013-03-04 14:02:00,
2013-03-04 07:12:00,62.0,-99.9,-100.00,WSW,248,2.0,-999.0,-999,-99.99,,,0.00,,2013-03-04 14:12:00,
2013-03-04 07:22:00,62.0,-99.9,-100.00,WSW,248,0.0,-999.0,-999,-99.99,,,0.00,,2013-03-04 14:22:00,
2013-03-04 07:32:00,62.0,-99.9,-100.00,WSW,248,2.0,-999.0,-999,-99.99,,,0.00,,2013-03-04 14:32:00,
2013-03-04 07:42:00,62.0,-99.9,-100.00,WSW,248,2.0,-999.0,-999,-99.99,,,0.00,,2013-03-04 14:42:00,
2013-03-04 07:52:00,62.0,-99.9,-100.00,WSW,248,6.0,-999.0,-999,-99.99,,,0.00,,2013-03-04 14:52:00,
2013-03-04 08:02:00,63.0,-99.9,-100.00,WSW,248,0.0,-999.0,-999,-99.99,,,0.00,,2013-03-04 15:02:00,
2013-03-04 08:11:00,63.0,-99.9,-100.00,WSW,248,0.0,-999.0,-999,-99.99,,,0.00,,2013-03-04 15:11:00,
2013-03-04 08:22:00,65.0,-99.9,-100.00,WSW,248,7.0,-999.0,-999,-99.99,,,0.00,,2013-03-04 15:22:00,
2013-03-04 08:32:00,65.0,-99.9,-100.00,WSW,248,5.0,-999.0,-999,-99.99,,,0.00,,2013-03-04 15:32:00,
2013-03-04 08:42:00,65.0,-99.9,-100.00,WSW,248,5.0,-999.0,-999,-99.99,,,0.00,,2013-03-04 15:42:00,
2013-03-04 08:52:00,66.0,-99.9,-100.00,WSW,248,8.0,-999.0,-999,-99.99,,,0.00,,2013-03-04 15:52:00,
2013-03-04 09:03:00,67.0,-99.9,-100.00,WSW,248,4.0,-999.0,-999,-99.99,,,0.00,,2013-03-04 16:03:00,
2013-03-04 09:11:00,67.0,-99.9,-100.00,WSW,248,4.0,-999.0,-999,-99.99,,,0.00,,2013-03-04 16:11:00,
2013-03-04 09:22:00,67.0,-99.9,-100.00,WSW,248,8.0,-999.0,-999,-99.99,,,0.00,,2013-03-04 16:22:00,
2013-03-04 09:32:00,68.0,-99.9,-100.00,WSW,248,7.0,-999.0,-999,-99.99,,,0.00,,2013-03-04 16:32:00,
2013-03-04 09:42:00,68.0,-99.9,-100.00,WSW,248,7.0,-999.0,-999,-99.99,,,0.00,,2013-03-04 16:42:00,
2013-03-04 09:52:00,69.0,-99.9,-100.00,WSW,248,6.0,-999.0,-999,-99.99,,,0.00,,2013-03-04 16:52:00,
2013-03-04 10:02:00,69.0,-99.9,-100.00,WSW,248,2.0,-999.0,-999,-99.99,,,0.00,,2013-03-04 17:02:00,
2013-03-04 10:11:00,69.0,-99.9,-100.00,WSW,248,2.0,-999.0,-999,-99.99,,,0.00,,2013-03-04 17:11:00,
2013-03-04 10:22:00,70.0,-99.9,-100.00,WSW,248,6.0,-999.0,-999,-99.99,,,0.00,,2013-03-04 17:22:00,
2013-03-04 10:32:00,71.0,-99.9,-100.00,WSW,248,5.0,-999.0,-999,-99.99,,,0.00,,2013-03-04 17:32:00,
2013-03-04 10:42:00,71.0,-99.9,-100.00,WSW,248,5.0,-999.0,-999,-99.99,,,0.00,,2013-03-04 17:42:00,
2013-03-04 10:52:00,71.0,-99.9,-100.00,WSW,248,5.0,-999.0,-999,-99.99,,,0.00,,2013-03-04 17:52:00,
2013-03-04 11:02:00,73.0,-99.9,-100.00,WSW,248,5.0,-999.0,-999,-99.99,,,0.00,,2013-03-04 18:02:00,
2013-03-04 11:11:00,73.0,-99.9,-100.00,WSW,248,5.0,-999.0,-999,-99.99,,,0.00,,2013-03-04 18:11:00,
2013-03-04 11:22:00,73.0,-99.9,-100.00,WSW,248,5.0,-999.0,-999,-99.99,,,0.00,,2013-03-04 18:22:00,
2013-03-04 11:33:00,74.0,-99.9,-100.00,SSE,158,5.0,-999.0,-999,-99.99,,,0.00,,2013-03-04 18:33:00,
2013-03-04 11:43:00,74.0,-99.9,-100.00,SSE,158,5.0,-999.0,-999,-99.99,,,0.00,,2013-03-04 18:43:00,
2013-03-04 11:53:00,74.0,-99.9,-100.00,SSE,158,8.0,-999.0,-999,-99.99,,,0.00,,2013-03-04 18:53:00,
2013-03-04 12:02:00,75.0,-99.9,-100.00,NE,45,3.0,-999.0,-999,-99.99,,,0.00,,2013-03-04 19:02:00,
2013-03-04 12:12:00,75.0,-99.9,-100.00,NE,45,3.0,-999.0,-999,-99.99,,,0.00,,2013-03-04 19:12:00,
2013-03-04 12:22:00,76.0,-99.9,-100.00,SE,135,4.0,-999.0,-999,-99.99,,,0.00,,2013-03-04 19:22:00,
2013-03-04 12:32:00,78.0,-99.9,-100.00,SSE,158,11.0,-999.0,-999,-99.99,,,0.00,,2013-03-04 19:32:00,
2013-03-04 12:42:00,78.0,-99.9,-100.00,SSE,158,11.0,-999.0,-999,-99.99,,,0.00,,2013-03-04 19:42:00,
2013-03-04 12:52:00,79.0,-99.9,-100.00,South,180,9.0,-999.0,-999,-99.99,,,0.00,,2013-03-04 19:52:00,
2013-03-04 13:02:00,78.0,-99.9,-100.00,SSW,203,10.0,-999.0,-999,-99.99,,,0.00,,2013-03-04 20:02:00,
2013-03-04 13:12:00,78.0,-99.9,-100.00,SSE,158,2.0,-999.0,-999,-99.99,,,0.00,,2013-03-04 20:12:00,
2013-03-04 13:22:00,78.0,-99.9,-100.00,SSE,158,2.0,-999.0,-999,-99.99,,,0.00,,2013-03-04 20:22:00,
2013-03-04 13:33:00,78.0,-99.9,-100.00,South,180,12.0,-999.0,-999,-99.99,,,0.00,,2013-03-04 20:33:00,
2013-03-04 13:42:00,78.0,-99.9,-100.00,South,180,12.0,-999.0,-999,-99.99,,,0.00,,2013-03-04 20:42:00,
2013-03-04 13:53:00,79.0,-99.9,-100.00,SSE,158,17.0,-999.0,-999,-99.99,,,0.00,,2013-03-04 20:53:00,
2013-03-04 14:02:00,80.0,-99.9,-100.00,SSE,158,9.0,-999.0,-999,-99.99,,,0.00,,2013-03-04 21:02:00,
2013-03-04 14:12:00,80.0,-99.9,-100.00,SSE,158,9.0,-999.0,-999,-99.99,,,0.00,,2013-03-04 21:12:00,
2013-03-04 14:22:00,78.0,-99.9,-100.00,SW,225,4.0,-999.0,-999,-99.99,,,0.00,,2013-03-04 21:22:00,
2013-03-04 14:33:00,79.0,-99.9,-100.00,SE,135,19.0,-999.0,-999,-99.99,,,0.00,,2013-03-04 21:33:00,
2013-03-04 14:43:00,79.0,-99.9,-100.00,SE,135,19.0,-999.0,-999,-99.99,,,0.00,,2013-03-04 21:43:00,
2013-03-04 14:53:00,80.0,-99.9,-100.00,SW,225,6.0,-999.0,-999,-99.99,,,0.00,,2013-03-04 21:53:00,
2013-03-04 15:02:00,79.0,-99.9,-100.00,WSW,248,16.0,-999.0,-999,-99.99,,,0.00,,2013-03-04 22:02:00,
2013-03-04 15:12:00,79.0,-99.9,-100.00,WSW,248,16.0,-999.0,-999,-99.99,,,0.00,,2013-03-04 22:12:00,
2013-03-04 15:22:00,80.0,-99.9,-100.00,WSW,248,8.0,-999.0,-999,-99.99,,,0.00,,2013-03-04 22:22:00,
2013-03-04 15:32:00,80.0,-99.9,-100.00,South,180,7.0,-999.0,-999,-99.99,,,0.00,,2013-03-04 22:32:00,
2013-03-04 15:43:00,80.0,-99.9,-100.00,South,180,7.0,-999.0,-999,-99.99,,,0.00,,2013-03-04 22:43:00,
2013-03-04 15:52:00,79.0,-99.9,-100.00,West,270,6.0,-999.0,-999,-99.99,,,0.00,,2013-03-04 22:52:00,
2013-03-04 16:02:00,79.0,-99.9,-100.00,South,180,2.0,-999.0,-999,-99.99,,,0.00,,2013-03-04 23:02:00,
2013-03-04 16:12:00,79.0,-99.9,-100.00,South,180,2.0,-999.0,-999,-99.99,,,0.00,,2013-03-04 23:12:00,
2013-03-04 16:22:00,78.0,-99.9,-100.00,WSW,248,9.0,-999.0,-999,-99.99,,,0.00,,2013-03-04 23:22:00,
2013-03-04 16:32:00,78.0,-99.9,-100.00,SW,225,18.0,-999.0,-999,-99.99,,,0.00,,2013-03-04 23:32:00,
2013-03-04 16:42:00,78.0,-99.9,-100.00,SW,225,18.0,-999.0,-999,-99.99,,,0.00,,2013-03-04 23:42:00,
2013-03-04 16:53:00,77.0,-99.9,-100.00,SW,225,15.0,-999.0,-999,-99.99,,,0.00,,2013-03-04 23:53:00,
2013-03-04 17:02:00,76.0,-99.9,-100.00,SW,225,5.0,-999.0,-999,-99.99,,,0.00,,2013-03-05 00:02:00,
2013-03-04 17:12:00,76.0,-99.9,-100.00,SW,225,5.0,-999.0,-999,-99.99,,,0.00,,2013-03-05 00:12:00,
2013-03-04 17:22:00,75.0,-99.9,-100.00,SSW,203,12.0,-999.0,-999,-99.99,,,0.00,,2013-03-05 00:22:00,
2013-03-04 17:33:00,73.0,-99.9,-100.00,SSW,203,8.0,-999.0,-999,-99.99,,,0.00,,2013-03-05 00:33:00,
2013-03-04 17:42:00,73.0,-99.9,-100.00,SSW,203,8.0,-999.0,-999,-99.99,,,0.00,,2013-03-05 00:42:00,
2013-03-04 17:52:00,72.0,-99.9,-100.00,SSW,203,11.0,-999.0,-999,-99.99,,,0.00,,2013-03-05 00:52:00,
2013-03-04 18:02:00,72.0,-99.9,-100.00,SSW,203,10.0,-999.0,-999,-99.99,,,0.00,,2013-03-05 01:02:00,
2013-03-04 18:12:00,72.0,-99.9,-100.00,SSW,203,10.0,-999.0,-999,-99.99,,,0.00,,2013-03-05 01:12:00,
2013-03-04 18:22:00,71.0,-99.9,-100.00,SSW,203,9.0,-999.0,-999,-99.99,,,0.00,,2013-03-05 01:22:00,
2013-03-04 18:33:00,70.0,-99.9,-100.00,SSW,203,12.0,-999.0,-999,-99.99,,,0.00,,2013-03-05 01:33:00,
2013-03-04 18:42:00,70.0,-99.9,-100.00,SSW,203,12.0,-999.0,-999,-99.99,,,0.00,,2013-03-05 01:42:00,
2013-03-04 18:52:00,69.0,-99.9,-100.00,SSW,203,9.0,-999.0,-999,-99.99,,,0.00,,2013-03-05 01:52:00,
2013-03-04 19:02:00,69.0,-99.9,-100.00,SSW,203,0.0,-999.0,-999,-99.99,,,0.00,,2013-03-05 02:02:00,
2013-03-04 19:12:00,69.0,-99.9,-100.00,SSW,203,0.0,-999.0,-999,-99.99,,,0.00,,2013-03-05 02:12:00,
2013-03-04 19:22:00,68.0,-99.9,-100.00,SSW,203,9.0,-999.0,-999,-99.99,,,0.00,,2013-03-05 02:22:00,
2013-03-04 19:33:00,68.0,-99.9,-100.00,SSW,203,6.0,-999.0,-999,-99.99,,,0.00,,2013-03-05 02:33:00,
2013-03-04 19:42:00,68.0,-99.9,-100.00,SSW,203,6.0,-999.0,-999,-99.99,,,0.00,,2013-03-05 02:42:00,
2013-03-04 19:53:00,67.0,-99.9,-100.00,SSW,203,5.0,-999.0,-999,-99.99,,,0.00,,2013-03-05 02:53:00,
2013-03-04 20:02:00,67.0,-99.9,-100.00,SSW,203,8.0,-999.0,-999,-99.99,,,0.00,,2013-03-05 03:02:00,
2013-03-04 20:12:00,67.0,-99.9,-100.00,SSW,203,13.0,-999.0,-999,-99.99,,,0.00,,2013-03-05 03:12:00,
2013-03-04 20:22:00,67.0,-99.9,-100.00,SSW,203,13.0,-999.0,-999,-99.99,,,0.00,,2013-03-05 03:22:00,
2013-03-04 20:32:00,66.0,-99.9,-100.00,SSW,203,4.0,-999.0,-999,-99.99,,,0.00,,2013-03-05 03:32:00,
2013-03-04 20:42:00,66.0,-99.9,-100.00,SSW,203,4.0,-999.0,-999,-99.99,,,0.00,,2013-03-05 03:42:00,
2013-03-04 20:53:00,66.0,-99.9,-100.00,SSW,203,7.0,-999.0,-999,-99.99,,,0.00,,2013-03-05 03:53:00,
2013-03-04 21:02:00,66.0,-99.9,-100.00,SSW,203,14.0,-999.0,-999,-99.99,,,0.00,,2013-03-05 04:02:00,
2013-03-04 21:12:00,66.0,-99.9,-100.00,SSW,203,14.0,-999.0,-999,-99.99,,,0.00,,2013-03-05 04:12:00,
2013-03-04 21:22:00,65.0,-99.9,-100.00,SSW,203,15.0,-999.0,-999,-99.99,,,0.00,,2013-03-05 04:22:00,
2013-03-04 21:32:00,65.0,-99.9,-100.00,SSW,203,8.0,-999.0,-999,-99.99,,,0.00,,2013-03-05 04:32:00,
2013-03-04 21:42:00,65.0,-99.9,-100.00,SSW,203,8.0,-999.0,-999,-99.99,,,0.00,,2013-03-05 04:42:00,
2013-03-04 21:52:00,65.0,-99.9,-100.00,SSW,203,2.0,-999.0,-999,-99.99,,,0.00,,2013-03-05 04:52:00,
2013-03-04 22:02:00,64.0,-99.9,-100.00,SSW,203,3.0,-999.0,-999,-99.99,,,0.00,,2013-03-05 05:02:00,
2013-03-04 22:12:00,64.0,-99.9,-100.00,SSW,203,3.0,-999.0,-999,-99.99,,,0.00,,2013-03-05 05:12:00,
2013-03-04 22:23:00,64.0,-99.9,-100.00,SSW,203,13.0,-999.0,-999,-99.99,,,0.00,,2013-03-05 05:23:00,
2013-03-04 22:32:00,63.0,-99.9,-100.00,SSW,203,4.0,-999.0,-999,-99.99,,,0.00,,2013-03-05 05:32:00,
2013-03-04 22:42:00,63.0,-99.9,-100.00,SSW,203,4.0,-999.0,-999,-99.99,,,0.00,,2013-03-05 05:42:00,
2013-03-04 22:52:00,64.0,-99.9,-100.00,SSW,203,10.0,-999.0,-999,-99.99,,,0.00,,2013-03-05 05:52:00,
2013-03-04 23:02:00,63.0,-99.9,-100.00,SSW,203,6.0,-999.0,-999,-99.99,,,0.00,,2013-03-05 06:02:00,
2013-03-04 23:11:00,63.0,-99.9,-100.00,SSW,203,6.0,-999.0,-999,-99.99,,,0.00,,2013-03-05 06:11:00,
2013-03-04 23:22:00,62.0,-99.9,-100.00,SSW,203,9.0,-999.0,-999,-99.99,,,0.00,,2013-03-05 06:22:00,
2013-03-04 23:32:00,62.0,-99.9,-100.00,SSW,203,7.0,-999.0,-999,-99.99,,,0.00,,2013-03-05 06:32:00,
2013-03-04 23:42:00,62.0,-99.9,-100.00,SSW,203,7.0,-999.0,-999,-99.99,,,0.00,,2013-03-05 06:42:00,
2013-03-04 23:52:00,61.0,-99.9,-100.00,SSW,203,7.0,-999.0,-999,-99.99,,,0.00,,2013-03-05 06:52:00,